When you browse on this site, cookies collect data to enhance your experience and personalize the content and advertising you see.
Visit our Privacy Policy to learn more. By continuing to use the site, you agree to this use of cookies and data.
  • In Hungary
  • List of Countries
  • For 7 days
  • Water Temperature
  • Satellite Maps
  • Weather Map
  • News
  • Weather Widgets
  • user-avatar
    Login

    Hourly Weather Metzingen

    Today, 17 June, Monday

    Time Temperature Precipitation Wind Pressure Humidity
    00:00 +14°C° 0 mm 1 mps 733 mmHg 90%
    01:00 +13°C° 0 mm 0 mps 733 mmHg 92%
    02:00 +12°C° 0 mm 0 mps 733 mmHg 92%
    03:00 +12°C° 0 mm 0 mps 733 mmHg 92%
    04:00 +13°C° 0 mm 1 mps 732 mmHg 92%
    05:00 +14°C° 0 mm 1 mps 732 mmHg 90%
    06:00 +15°C° 0 mm 1 mps 733 mmHg 88%
    07:00 +18°C° 0 mm 1 mps 733 mmHg 83%
    08:00 +18°C° 0 mm 2 mps 732 mmHg 78%
    09:00 +20°C° 0 mm 2 mps 732 mmHg 72%
    10:00 +21°C° 0 mm 3 mps 732 mmHg 66%
    11:00 +22°C° 0 mm 3 mps 732 mmHg 64%
    12:00 +24°C° 0 mm 3 mps 731 mmHg 62%
    13:00 +25°C° 0 mm 3 mps 731 mmHg 60%
    14:00 +25°C° 0 mm 3 mps 731 mmHg 62%
    15:00 +25°C° 0 mm 3 mps 730 mmHg 63%
    16:00 +25°C° 0 mm 3 mps 730 mmHg 64%
    17:00 +25°C° 0 mm 3 mps 730 mmHg 69%
    18:00 +24°C° 0 mm 2 mps 730 mmHg 74%
    19:00 +23°C° 0 mm 2 mps 730 mmHg 78%
    20:00 +21°C° 0 mm 2 mps 730 mmHg 81%
    21:00 +20°C° 0 mm 1 mps 730 mmHg 84%
    22:00 +18°C° 0 mm 1 mps 730 mmHg 87%
    23:00 +18°C° 0 mm 1 mps 730 mmHg 88%

    Tomorrow, 18 June, Tuesday

    Time Temperature Precipitation Wind Pressure Humidity
    00:00 +18°C° 0 mm 1 mps 730 mmHg 89%
    01:00 +16°C° 0 mm 1 mps 730 mmHg 90%
    02:00 +16°C° 0 mm 1 mps 729 mmHg 91%
    03:00 +15°C° 0 mm 1 mps 729 mmHg 92%
    04:00 +15°C° 0 mm 1 mps 729 mmHg 93%
    05:00 +16°C° 0 mm 1 mps 729 mmHg 91%
    06:00 +18°C° 0 mm 1 mps 729 mmHg 89%
    07:00 +19°C° 0 mm 1 mps 729 mmHg 87%
    08:00 +21°C° 0 mm 1 mps 729 mmHg 81%
    09:00 +23°C° 0 mm 1 mps 729 mmHg 75%
    10:00 +25°C° 0 mm 1 mps 729 mmHg 69%
    11:00 +26°C° 0 mm 1 mps 729 mmHg 64%
    12:00 +27°C° 0 mm 1 mps 728 mmHg 60%
    13:00 +28°C° 0 mm 1 mps 728 mmHg 55%
    14:00 +28°C° 0.1 mm 1 mps 728 mmHg 55%
    15:00 +28°C° 0.1 mm 1 mps 728 mmHg 55%
    16:00 +28°C° 0.1 mm 1 mps 728 mmHg 56%
    17:00 +27°C° 0.2 mm 1 mps 727 mmHg 63%
    18:00 +26°C° 0.2 mm 1 mps 727 mmHg 70%
    19:00 +24°C° 0.2 mm 1 mps 727 mmHg 77%
    20:00 +23°C° 0 mm 1 mps 727 mmHg 79%
    21:00 +22°C° 0 mm 1 mps 727 mmHg 81%
    22:00 +21°C° 0 mm 1 mps 727 mmHg 83%
    23:00 +20°C° 0 mm 1 mps 727 mmHg 83%

    Day after tomorrow, 19 June, Wednesday

    Time Temperature Precipitation Wind Pressure Humidity
    00:00 +20°C° 0 mm 1 mps 727 mmHg 84%
    01:00 +19°C° 0 mm 1 mps 727 mmHg 84%
    02:00 +19°C° 0 mm 1 mps 726 mmHg 84%
    03:00 +18°C° 0 mm 1 mps 726 mmHg 83%
    04:00 +18°C° 0 mm 1 mps 726 mmHg 83%
    05:00 +19°C° 0 mm 1 mps 726 mmHg 81%
    06:00 +21°C° 0 mm 1 mps 726 mmHg 79%
    07:00 +22°C° 0 mm 1 mps 727 mmHg 76%
    08:00 +24°C° 0 mm 1 mps 727 mmHg 70%
    09:00 +26°C° 0 mm 2 mps 727 mmHg 63%
    10:00 +27°C° 0 mm 2 mps 727 mmHg 57%
    11:00 +28°C° 0 mm 1 mps 727 mmHg 52%
    12:00 +29°C° 0 mm 1 mps 727 mmHg 48%
    13:00 +30°C° 0 mm 1 mps 726 mmHg 43%
    14:00 +30°C° 0 mm 1 mps 726 mmHg 45%
    15:00 +30°C° 0 mm 1 mps 726 mmHg 47%
    16:00 +30°C° 0 mm 1 mps 726 mmHg 49%
    17:00 +28°C° 0.4 mm 1 mps 726 mmHg 59%
    18:00 +26°C° 0.4 mm 1 mps 726 mmHg 69%
    19:00 +24°C° 0.4 mm 1 mps 726 mmHg 79%
    20:00 +23°C° 0.7 mm 1 mps 726 mmHg 82%
    21:00 +21°C° 0.7 mm 1 mps 727 mmHg 84%
    22:00 +20°C° 0.7 mm 1 mps 727 mmHg 86%
    23:00 +19°C° 0.2 mm 1 mps 727 mmHg 87%

    20 June, Thursday

    Time Temperature Precipitation Wind Pressure Humidity
    00:00 +19°C° 0.2 mm 1 mps 727 mmHg 88%
    01:00 +18°C° 0.2 mm 1 mps 727 mmHg 89%
    02:00 +18°C° 0 mm 1 mps 727 mmHg 89%
    03:00 +18°C° 0 mm 1 mps 727 mmHg 89%
    04:00 +18°C° 0 mm 1 mps 727 mmHg 88%
    05:00 +17°C° 0 mm 0 mps 727 mmHg 88%
    06:00 +18°C° 0 mm 0 mps 727 mmHg 87%
    07:00 +18°C° 0 mm 0 mps 727 mmHg 87%
    08:00 +20°C° 0.4 mm 0 mps 727 mmHg 84%
    09:00 +21°C° 0.4 mm 0 mps 727 mmHg 81%
    10:00 +22°C° 0.4 mm 0 mps 727 mmHg 78%
    11:00 +24°C° 0.6 mm 1 mps 727 mmHg 75%
    12:00 +25°C° 0.6 mm 1 mps 727 mmHg 73%
    13:00 +25°C° 0.6 mm 1 mps 726 mmHg 70%
    14:00 +25°C° 0.9 mm 2 mps 727 mmHg 75%
    15:00 +24°C° 0.9 mm 2 mps 727 mmHg 79%
    16:00 +22°C° 0.9 mm 3 mps 727 mmHg 84%
    17:00 +21°C° 0.4 mm 2 mps 727 mmHg 86%
    18:00 +20°C° 0.4 mm 2 mps 727 mmHg 87%
    19:00 +20°C° 0.4 mm 1 mps 728 mmHg 89%
    20:00 +19°C° 0.1 mm 1 mps 728 mmHg 90%
    21:00 +18°C° 0.1 mm 1 mps 728 mmHg 90%
    22:00 +15°C° 0.1 mm 0 mps 728 mmHg 91%
    23:00 +15°C° 0 mm 0 mps 728 mmHg 91%

    21 June, Friday

    Time Temperature Precipitation Wind Pressure Humidity
    00:00 +16°C° 0 mm 1 mps 728 mmHg 91%
    01:00 +15°C° 0 mm 1 mps 728 mmHg 92%
    02:00 +15°C° 0 mm 1 mps 728 mmHg 92%
    03:00 +14°C° 0 mm 0 mps 728 mmHg 92%
    04:00 +13°C° 0 mm 0 mps 728 mmHg 92%
    05:00 +15°C° 0 mm 0 mps 728 mmHg 90%
    06:00 +16°C° 0 mm 0 mps 729 mmHg 88%
    07:00 +17°C° 0 mm 0 mps 729 mmHg 87%
    08:00 +19°C° 0 mm 0 mps 729 mmHg 80%
    09:00 +20°C° 0 mm 0 mps 729 mmHg 73%
    10:00 +22°C° 0 mm 0 mps 730 mmHg 67%
    11:00 +24°C° 0.3 mm 1 mps 729 mmHg 68%
    12:00 +24°C° 0.3 mm 1 mps 729 mmHg 70%
    13:00 +24°C° 0.3 mm 1 mps 729 mmHg 72%
    14:00 +24°C° 0.9 mm 1 mps 729 mmHg 74%
    15:00 +24°C° 0.9 mm 2 mps 729 mmHg 77%
    16:00 +23°C° 0.9 mm 2 mps 729 mmHg 79%
    17:00 +21°C° 1.8 mm 2 mps 729 mmHg 84%
    18:00 +20°C° 1.8 mm 2 mps 729 mmHg 88%
    19:00 +19°C° 1.8 mm 1 mps 729 mmHg 93%
    20:00 +19°C° 0.4 mm 1 mps 729 mmHg 93%
    21:00 +18°C° 0.4 mm 1 mps 730 mmHg 93%
    22:00 +16°C° 0.4 mm 0 mps 730 mmHg 93%
    23:00 +16°C° 0 mm 0 mps 730 mmHg 93%

    22 June, Saturday

    Time Temperature Precipitation Wind Pressure Humidity
    00:00 +16°C° 0 mm 0 mps 729 mmHg 92%
    01:00 +16°C° 0 mm 0 mps 729 mmHg 92%
    02:00 +15°C° 0 mm 0 mps 729 mmHg 93%
    03:00 +16°C° 0 mm 1 mps 728 mmHg 93%
    04:00 +16°C° 0 mm 1 mps 728 mmHg 94%
    05:00 +16°C° 0.3 mm 1 mps 728 mmHg 95%
    06:00 +16°C° 0.3 mm 1 mps 728 mmHg 95%
    07:00 +16°C° 0.3 mm 1 mps 728 mmHg 96%
    08:00 +18°C° 1.5 mm 1 mps 728 mmHg 96%
    09:00 +18°C° 1.5 mm 1 mps 728 mmHg 97%
    10:00 +18°C° 1.5 mm 1 mps 728 mmHg 97%
    11:00 +17°C° 0.9 mm 2 mps 728 mmHg 96%
    12:00 +17°C° 0.9 mm 2 mps 728 mmHg 96%
    13:00 +17°C° 0.9 mm 2 mps 728 mmHg 95%
    14:00 +17°C° 0.2 mm 2 mps 728 mmHg 95%
    15:00 +17°C° 0.2 mm 2 mps 728 mmHg 95%
    16:00 +17°C° 0.2 mm 2 mps 728 mmHg 94%
    17:00 +17°C° 0 mm 2 mps 728 mmHg 94%
    18:00 +17°C° 0 mm 2 mps 729 mmHg 94%
    19:00 +17°C° 0 mm 2 mps 729 mmHg 93%
    20:00 +16°C° 0 mm 1 mps 729 mmHg 94%
    21:00 +16°C° 0 mm 1 mps 729 mmHg 95%
    22:00 +14°C° 0 mm 0 mps 729 mmHg 96%
    23:00 +15°C° 0 mm 1 mps 729 mmHg 96%
    Show more